COSMOS 2301

导读

COSMOS 2301(宇宙2301)是苏联(CIS,独联体)于1994年12月26日发射的军事侦察卫星,隶属于“宇宙”系列卫星。该系列承担包括军事侦察、空间技术试验等多重任务,是冷战后独联体维持空间军事能力的重要平台,在低地球轨道运行,服务于战略情报收集与空间技术验证,是90年代独联体航天活动的典型成果。

Basic Information
目录编号:
23443
目录名称:
COSMOS 2301
国际标识:
1994-086C
轨道中心:
EARTH
卫星名称:
COSMOS 2301
卫星全名:
--
卫星状态:
在轨 (已飞行11594 天)
发射日期:
1994-12-26 UTC
国别 :
俄罗斯(独联体) (CIS)
星等 :
--
This satellite is enrolled in the Space Conjunction Data Service (SCDS) and the current flight risk assessment level is: High Risk
Orbit Information
数据来源 国际轨道数据 AOE轨道数据
星历时间 2026-09-23T02:48:38+0800
10小时前
查看轨道信息
2026-09-23T06:00:00+0800
7小时前
查看轨道信息
半长轴 7791.895km 7791.894km
偏心率 0.0000879 0.0000823
轨道倾角 82.567° 82.567°
近地点辐角 331.578° 323.583°
升交点赤经 258.476° 258.387°
平近点角 202.365° 93.918°
近地点 1413.073km 1413.115km
远地点 1414.443km 1414.399km
周期 114.084分钟 114.084分钟
每日圈数 12.62229 12.622294
Detailed Information
使用方式:
暂无
2D Orbit Map
3D Orbit Map
Orbit Altitude Analysis Chart
Orbit Inclination Analysis Chart
Orbit Comprehensive Analysis Chart
View Comprehensive Chart
Conjunction Data List
Event ID Objects TCA Miss Dist (km) Collision Risk Probability Collision Risk Index (CRI) Action
CDM_260923-102900-303502-344329
2026-09-23T
10:29:06+0000
0.570 km
远距离
1.323291E-4 高风险 0.77
CDM_260915-220202-344302-682927
2026-09-15T
22:02:20+0000
1.935 km
极远距离
3.035158E-6 低风险 0.45
CDM_260924-101902-173302-344324
2026-09-24T
10:19:20+0000
2.231 km
极远距离
7.640496E-7 极低风险 0.33
Miss Distance Evolution Trend with All Objects Subscribe to Flight Safety Assessment
Collision Probability Evolution Trend with All Objects Subscribe to Flight Safety Assessment